カタログに戻る

FREGAT R/B

運用中HEO
NORAD 43688·ROCKET BODY·🇷🇺 Russia

打ち上げ Nov 3, 2018 から Plesetsk Cosmodrome

Loading…

次のパス (今後24時間)

TLE

最新Source: Space-Track

元期: Sep 13, 2026, 12:12 UTC

1 43688U 18086B   26256.50881517  .00000016  00000-0  00000-0 0  9995
2 43688  64.2169 193.8094 0063434 130.5487 229.9986  2.08703164 59663

AllMySatでFREGAT R/Bをリアルタイム追跡

Download on the App Store